Theta_e
316 315 312 311 311 312 313 313 313 313 312 312 312 311 310 310 310 311 313 313 313 312 312 312 312 311 309 308 307 307 306 307 307 307 306 306 305 304 304 303 303 304 304 304 304 303 303 301 301 301 300 299 299 301 304 304 303 303 304 303 304 305 305 306 309 311 310 310 310 310 310 308 307 309 311 313 315 316 317 318 319 319 319 320 320
320 320 318 314 312 311 311 312 313 313 313 313 313 313 312 311 311 311 312 313 314 313 313 312 312 312 311 310 308 308 307 307 307 307 307 307 307 306 305 304 303 303 303 303 303 303 303 302 301 300 300 298 297 300 304 305 304 306 306 306 305 305 304 304 306 308 308 308 308 308 307 307 307 308 309 309 310 311 313 315 316 317 317 318 319
320 320 321 320 318 316 314 313 313 312 313 313 313 314 314 314 313 312 312 313 314 314 313 313 313 313 312 311 310 309 308 308 308 308 308 307 307 307 306 305 304 303 303 303 303 303 303 302 301 300 299 298 297 298 301 303 304 306 306 306 305 305 303 302 302 304 305 305 305 306 307 307 307 306 305 305 305 306 307 309 312 314 315 316 317
319 319 320 321 320 319 318 318 317 316 315 314 313 313 314 315 315 314 313 314 315 315 315 313 313 313 313 312 311 311 310 310 310 309 309 309 308 308 307 306 305 303 303 303 303 303 303 302 301 300 298 298 297 298 300 302 302 303 304 305 305 306 305 304 304 304 304 305 305 305 305 305 305 305 305 304 305 306 307 308 310 312 314 315 317
316 318 319 319 319 319 319 319 319 318 318 317 316 314 313 314 315 316 315 315 315 316 316 315 314 313 313 313 312 312 311 311 310 310 310 310 310 309 308 306 305 304 303 303 303 303 302 301 300 299 298 297 296 297 299 299 298 299 300 302 303 305 305 306 306 305 306 306 306 305 304 303 303 304 303 303 305 307 309 311 312 313 314 315 316
311 312 313 313 315 317 318 319 320 320 319 318 317 316 315 314 314 315 315 316 316 317 316 316 314 313 313 313 313 312 312 312 311 311 311 311 311 310 309 306 305 304 303 303 303 302 301 300 298 297 296 296 296 296 296 296 297 297 298 299 300 301 302 303 303 304 305 305 306 306 306 305 305 304 304 304 304 305 306 308 310 311 313 314 315
307 307 308 308 309 310 312 315 318 321 322 321 320 319 318 318 317 316 316 315 315 316 317 316 315 314 314 313 313 313 313 312 311 311 311 311 312 311 309 307 305 304 303 302 302 302 300 298 297 296 295 295 295 294 294 294 295 296 298 300 301 301 301 301 301 302 303 303 304 305 306 306 306 306 306 306 305 305 305 307 310 312 313 315 315
307 306 307 307 308 308 308 309 311 316 320 322 322 322 321 321 320 319 318 317 316 316 316 316 315 314 314 314 314 313 313 312 312 311 311 312 312 311 309 306 305 303 303 303 302 301 299 297 295 295 294 294 294 293 293 293 294 294 296 299 300 301 302 302 302 302 302 303 304 304 305 305 306 306 306 307 307 308 308 309 311 311 312 313 314
306 306 306 306 307 307 307 307 308 309 311 315 318 321 322 322 321 321 320 319 318 317 317 316 315 314 314 314 314 313 313 313 312 312 312 311 311 310 307 305 304 303 302 302 300 299 297 295 294 294 293 293 293 293 292 293 293 293 294 295 297 299 301 302 302 302 302 303 304 304 304 305 305 305 306 307 308 309 309 309 308 307 307 309 311
304 304 305 305 305 305 306 306 307 307 308 308 311 316 320 321 321 321 320 320 320 319 318 317 316 315 314 314 314 314 313 312 312 312 311 311 310 308 306 304 303 303 301 300 298 296 295 294 294 294 294 293 292 292 292 293 293 293 294 294 295 296 298 299 301 301 302 303 303 303 304 304 305 305 306 306 306 307 308 308 307 307 307 308 310
302 302 302 303 304 304 304 305 306 306 306 307 307 310 315 319 320 320 320 319 319 319 318 317 316 314 314 314 314 314 313 312 311 311 311 310 308 306 305 304 303 302 300 298 296 295 295 294 294 293 293 293 292 292 292 293 293 293 294 294 294 294 295 296 297 298 300 301 302 302 303 303 304 304 305 305 305 305 306 307 307 308 308 308 309
301 301 301 301 302 303 303 303 304 306 306 306 306 306 309 314 317 319 319 318 318 318 318 317 316 314 313 313 314 313 312 312 311 310 310 308 307 305 304 303 302 301 299 297 295 295 295 294 293 292 292 292 292 292 292 293 293 294 294 294 295 295 295 295 295 296 297 298 300 301 302 303 303 303 304 304 304 305 305 306 306 307 307 308 308
300 300 300 300 301 301 301 303 304 305 305 304 305 307 308 309 312 316 318 317 318 317 317 316 315 314 313 313 312 312 311 312 311 309 308 307 306 304 303 302 301 299 297 296 295 295 294 293 293 293 293 293 293 293 293 293 293 293 293 294 295 295 295 295 295 295 295 296 297 298 299 300 301 302 303 303 303 303 303 304 305 305 306 307 307
301 300 300 300 301 301 301 303 303 304 304 304 303 305 307 307 309 313 315 316 318 318 317 316 315 314 313 313 313 312 310 310 309 308 307 306 305 304 302 301 299 297 296 295 294 293 293 293 293 293 293 293 293 293 293 293 293 293 293 294 295 295 295 295 296 296 296 296 296 296 297 298 299 300 301 301 301 301 301 302 303 303 304 305 306
302 301 301 301 301 302 302 302 302 302 302 303 303 302 304 305 307 311 313 314 316 318 317 316 315 314 312 312 313 312 309 308 308 307 305 305 304 303 301 299 297 296 295 294 293 293 293 293 293 293 293 293 294 293 293 292 292 293 293 294 294 295 295 295 296 297 297 298 298 297 298 298 298 298 299 299 300 300 300 300 301 301 302 302 303
302 302 301 301 301 301 301 300 301 301 302 303 304 302 302 302 304 309 313 314 315 316 316 315 315 314 312 311 311 311 309 308 307 306 305 304 302 300 298 297 296 296 296 295 294 295 295 294 294 294 294 293 293 293 292 292 293 293 294 294 294 295 295 296 296 296 296 297 297 298 298 298 298 298 298 298 299 299 299 299 299 300 300 301 301
302 301 301 301 300 299 299 299 299 301 302 304 307 305 303 302 303 307 312 313 314 316 316 315 314 313 311 310 310 309 307 306 305 305 303 302 299 297 297 297 297 297 297 296 296 296 296 295 294 294 293 293 293 292 292 293 293 294 294 294 294 295 295 295 295 295 295 295 295 295 296 296 297 297 297 297 298 298 298 298 298 298 299 300 300
302 302 302 301 299 298 299 298 298 300 302 304 307 306 304 303 303 306 311 313 314 314 315 314 313 312 310 309 308 307 305 305 304 303 301 298 297 296 296 297 297 297 297 297 297 297 297 296 295 293 293 293 293 293 293 294 294 294 294 294 294 294 295 295 295 295 295 295 294 294 294 294 295 295 295 295 296 297 297 297 297 297 298 298 299
302 303 302 300 299 299 299 299 298 299 300 302 305 307 305 305 306 309 311 312 312 313 314 313 312 311 310 308 307 305 304 304 302 299 297 296 295 295 295 296 297 297 297 297 297 297 297 296 295 294 294 294 294 293 294 294 294 294 293 293 293 293 294 294 294 294 294 294 294 294 294 294 294 294 295 295 295 295 295 295 296 296 297 297 298
302 303 301 300 299 299 299 299 299 299 299 301 304 307 307 306 308 311 311 311 311 313 313 313 312 311 308 307 305 304 303 301 299 296 295 295 294 293 294 295 296 296 297 297 297 297 296 296 296 295 295 294 294 294 294 294 294 293 292 292 292 293 293 293 293 293 293 293 293 293 293 293 294 294 294 295 295 295 295 295 295 295 296 296 297
302 302 301 300 300 300 299 299 299 301 301 301 305 309 309 307 309 312 312 312 312 312 312 312 311 309 307 305 303 301 299 299 297 295 294 293 293 293 293 293 294 295 295 295 295 295 295 295 295 295 295 294 294 294 294 293 293 292 291 291 292 292 291 291 291 291 291 291 291 292 292 292 293 293 293 294 294 294 295 295 295 295 295 296 296
302 301 300 301 301 301 299 299 300 301 303 305 308 310 309 308 310 312 312 313 313 312 311 310 309 306 304 302 300 297 296 296 295 293 293 293 293 293 292 292 292 292 292 292 293 294 294 295 295 295 295 294 294 294 293 292 291 291 291 291 291 291 290 290 290 290 290 290 291 291 291 292 292 293 293 293 293 294 294 295 295 296 296 296 296
302 302 301 300 300 299 299 299 301 302 303 307 309 309 309 309 310 312 313 313 312 310 309 307 305 302 301 299 297 295 294 294 293 293 293 293 292 292 291 291 291 291 291 291 292 293 294 294 295 295 294 294 293 292 292 291 291 291 291 291 291 290 290 289 289 289 289 290 290 290 291 291 292 292 293 293 293 293 294 294 295 295 296 296 296
303 303 302 300 299 301 301 303 304 304 305 307 309 309 309 310 311 312 312 311 310 308 305 303 300 299 298 298 297 295 295 294 294 293 292 292 291 291 291 291 292 292 293 293 293 294 294 294 294 294 293 293 293 292 292 292 291 291 290 290 290 289 289 289 289 289 290 290 290 290 291 291 292 292 292 293 293 294 294 294 294 295 295 295 296
303 303 302 301 302 303 305 305 306 306 307 308 309 308 309 310 312 312 310 308 306 305 301 298 297 297 298 298 297 297 296 295 294 293 292 291 292 292 292 293 293 293 294 294 294 294 294 293 293 293 293 293 292 292 291 291 290 290 289 289 289 289 289 290 290 290 290 290 291 291 291 291 292 292 293 293 293 294 294 294 294 294 294 295 295
303 302 302 302 303 304 305 306 306 307 308 308 308 308 309 310 310 309 307 305 303 301 298 296 297 298 298 297 297 296 295 295 295 294 293 292 292 292 292 293 293 293 294 294 294 293 293 293 292 292 292 291 291 290 290 290 290 290 290 290 290 290 290 290 291 291 291 291 291 292 292 292 292 293 293 293 293 293 294 294 294 294 294 294 295
303 303 303 303 303 305 305 305 306 307 308 307 308 309 310 309 309 307 305 302 300 299 298 297 297 297 297 297 297 296 296 296 295 294 293 293 292 292 292 292 293 293 293 293 293 292 292 292 292 291 291 290 290 290 290 290 290 290 290 290 290 290 291 291 291 291 291 291 292 292 292 292 292 292 292 293 293 293 293 293 293 293 294 294 294
303 304 304 304 304 305 305 305 306 307 307 307 307 308 308 307 305 304 301 298 297 297 296 296 297 297 297 297 297 297 297 296 295 293 293 293 292 292 292 292 293 293 293 293 293 292 292 291 291 291 290 290 290 290 290 290 290 290 290 290 290 290 290 290 290 291 291 291 291 292 292 292 292 292 292 292 292 293 293 293 293 293 293 293 293
303 303 304 304 305 306 305 306 306 307 307 306 305 304 304 303 301 300 298 297 297 296 296 296 297 297 297 297 297 296 296 295 294 294 294 293 292 291 291 292 293 293 293 292 292 292 291 291 291 291 290 290 290 290 290 290 290 290 290 290 290 290 290 290 290 290 291 291 291 291 292 292 292 292 292 292 292 293 293 292 292 292 293 293 293
303 303 304 305 305 306 305 306 306 305 305 304 303 301 301 300 298 297 297 296 296 297 297 297 297 297 296 296 296 295 295 295 294 294 293 292 291 291 291 292 292 292 292 292 292 291 291 291 291 290 290 290 290 290 290 290 290 290 290 290 290 290 290 290 290 290 290 290 291 291 291 291 291 292 292 293 293 293 293 293 292 292 292 292 293
303 304 304 305 306 305 305 305 305 303 302 302 301 300 298 298 297 296 295 295 296 296 296 296 296 296 296 296 295 295 295 294 294 293 292 292 291 290 291 292 292 292 292 292 291 291 290 290 290 290 290 290 290 290 290 290 290 290 290 290 290 290 290 290 290 290 290 290 290 290 290 291 291 292 293 293 294 294 294 294 293 293 293 293 293
304 304 305 305 305 305 305 304 303 301 300 299 298 297 297 297 297 296 295 296 296 296 296 296 296 296 296 296 295 295 294 294 293 293 292 292 291 290 290 292 292 292 292 291 291 290 290 290 290 290 289 289 290 290 290 290 290 290 290 290 290 289 289 289 289 290 290 290 290 290 291 291 291 292 293 293 294 294 295 295 294 294 293 293 293
304 304 305 305 305 305 304 303 301 300 299 297 297 297 297 297 297 296 295 295 295 295 295 295 296 296 296 295 295 295 294 293 293 292 292 292 291 290 290 291 292 292 291 291 290 290 290 290 290 290 289 289 289 289 289 289 289 289 289 289 289 289 289 289 289 289 289 290 290 291 291 291 292 292 293 294 294 295 295 295 295 294 294 293 293
304 305 305 305 305 305 303 302 301 299 298 297 297 297 297 297 296 295 295 295 295 295 295 295 295 296 296 295 295 294 293 293 293 292 292 292 291 290 289 291 291 291 290 290 290 290 290 290 290 289 289 289 289 289 289 289 289 289 289 289 289 289 289 289 289 289 289 290 290 291 291 291 292 292 293 294 294 294 295 295 295 295 294 294 294
304 304 304 304 304 303 302 301 300 299 298 297 297 297 297 296 295 295 295 295 295 295 295 295 295 295 295 295 294 294 293 293 293 292 292 292 292 291 290 290 291 291 290 290 290 290 290 290 290 289 289 289 289 289 289 289 289 289 289 289 289 289 289 289 290 290 289 289 290 291 291 292 292 292 293 293 294 294 295 295 296 296 295 294 294
303 303 303 303 303 301 300 300 299 298 298 297 297 296 296 295 295 295 295 295 295 295 295 295 295 295 295 295 294 294 293 293 292 292 292 293 292 291 290 290 290 291 290 290 290 290 289 289 289 289 289 289 289 289 289 289 289 289 289 289 289 289 289 289 289 289 289 289 290 291 291 292 292 293 293 293 294 294 295 295 296 296 295 294 294
302 302 302 302 301 300 299 299 299 299 298 297 296 296 296 296 296 296 296 296 295 295 295 295 295 295 295 295 294 294 293 293 293 293 293 293 292 291 291 290 290 290 290 290 290 289 289 289 289 289 289 289 289 289 289 289 289 289 289 289 290 290 290 290 289 289 290 290 290 291 292 292 293 293 294 294 294 294 295 295 296 296 295 294 294
301 300 300 300 300 299 299 299 299 298 297 297 297 297 297 297 297 297 297 296 295 295 295 295 295 295 295 295 294 294 293 293 293 293 293 293 292 291 291 291 290 290 290 290 289 289 289 289 289 289 289 289 289 289 289 289 289 289 290 290 290 290 290 290 290 290 290 290 291 292 292 293 294 294 294 294 294 294 295 295 295 295 295 294 295
299 299 300 300 300 299 299 299 298 297 297 297 297 297 297 297 297 297 297 296 296 296 296 296 296 295 295 295 294 294 294 294 294 293 293 293 292 291 291 291 291 290 290 290 289 289 289 289 288 288 288 288 288 288 288 289 289 289 289 289 290 290 290 290 290 290 290 291 292 292 293 294 294 294 294 295 295 295 295 295 296 296 295 295 295
299 300 300 300 299 298 298 297 297 297 297 297 297 296 297 297 297 297 297 297 296 296 296 296 296 296 295 295 295 295 294 294 294 293 293 293 292 292 291 291 291 290 290 289 289 289 289 288 288 288 288 288 288 288 288 288 288 289 289 289 290 290 290 290 290 290 291 291 292 292 293 294 294 294 294 295 295 295 295 296 296 296 296 295 295
300 299 299 299 298 297 296 296 297 297 297 297 297 297 297 297 297 297 297 297 296 296 296 296 296 296 295 295 295 295 295 294 294 294 293 293 293 292 292 291 291 290 290 289 289 289 288 288 288 288 288 288 288 288 288 289 289 289 289 290 290 290 290 290 290 290 291 292 292 293 294 294 294 295 295 296 296 296 296 296 296 296 296 296 296
299 299 298 298 297 296 296 296 296 296 296 297 297 297 297 297 297 297 297 296 296 296 296 295 296 296 296 296 295 295 295 295 295 294 293 293 293 292 292 291 291 290 290 289 289 289 288 288 288 288 288 288 288 288 288 288 289 289 289 290 290 290 290 290 291 291 291 292 293 294 294 295 295 295 296 296 296 296 296 296 296 296 296 296 297
299 299 298 297 296 296 296 296 296 296 296 296 297 297 297 297 297 297 296 296 296 296 295 295 296 296 297 296 296 295 295 295 295 295 293 293 293 293 292 292 291 291 290 289 289 289 288 288 288 289 289 289 289 289 289 289 289 289 289 290 290 290 290 291 291 291 292 292 294 295 295 295 296 296 296 296 296 296 296 296 296 296 296 297 297
299 298 297 297 297 296 296 296 296 296 296 296 297 297 297 297 297 297 296 296 296 296 296 296 296 297 297 296 296 296 296 296 295 295 294 293 293 293 293 293 292 291 290 289 289 289 288 288 289 289 289 289 289 289 290 290 290 290 290 290 290 290 290 291 291 291 292 293 294 295 295 295 296 296 296 297 297 297 296 296 296 297 297 297 298
299 298 297 296 296 296 296 295 296 296 296 297 297 297 296 296 296 296 296 296 296 296 297 297 297 297 297 297 296 296 296 296 296 295 294 293 293 293 293 293 292 291 290 289 289 289 288 288 289 289 289 289 289 289 289 290 290 290 290 290 290 290 291 291 291 292 292 293 294 294 295 295 296 296 297 297 298 298 298 298 298 298 298 298 298
298 298 298 297 296 295 295 295 296 296 297 297 297 296 296 296 296 296 296 296 297 297 297 296 296 296 296 296 295 295 295 295 296 295 295 294 293 293 293 293 292 291 289 289 289 289 289 289 289 289 289 289 289 289 289 289 290 290 290 290 290 290 291 291 291 292 292 293 293 294 294 295 296 296 297 297 298 298 298 298 298 298 298 298 298
298 298 297 296 296 295 295 296 297 297 297 297 297 297 297 296 296 296 297 297 297 296 295 295 294 294 294 294 293 293 294 294 295 295 295 294 293 293 293 293 292 290 289 289 290 290 289 289 289 289 289 289 289 289 289 289 290 290 290 290 290 290 291 291 292 292 293 293 293 294 294 294 295 296 296 297 297 298 298 298 298 297 297 297 297
298 298 297 297 297 297 297 297 297 297 297 297 297 297 296 296 296 297 297 296 295 294 294 293 293 292 292 292 292 293 293 294 295 295 295 294 293 293 293 293 292 290 289 289 290 290 290 289 289 289 289 289 288 289 289 289 289 290 290 290 290 291 291 291 292 292 293 293 293 294 294 294 295 296 296 296 296 297 297 297 297 297 297 297 296
298 298 298 298 297 297 297 297 297 297 297 297 296 296 296 297 296 296 295 294 293 293 292 292 291 291 290 291 291 292 293 294 295 295 295 294 293 293 293 293 291 289 289 289 290 291 290 289 289 289 289 288 288 288 289 289 289 289 290 290 291 291 291 291 292 292 293 293 293 293 294 294 294 295 295 295 295 296 296 296 296 296 296 296 295
298 298 298 298 297 297 297 297 297 297 296 296 296 296 296 295 294 294 293 292 292 292 291 290 290 290 290 290 291 292 294 295 295 296 295 293 293 293 293 292 290 289 288 289 290 291 291 290 289 289 289 289 288 288 289 289 289 289 289 290 291 291 291 291 292 292 292 293 293 293 293 294 294 294 294 294 294 295 295 295 295 295 295 295 294
297 297 297 297 297 297 297 297 297 296 296 296 296 295 294 293 293 292 291 291 291 290 290 289 289 289 289 290 291 293 295 295 295 296 294 293 293 293 293 291 290 289 288 289 290 291 291 290 289 288 289 289 289 289 289 289 289 289 289 290 290 291 291 291 292 292 292 292 293 293 293 293 293 293 293 294 294 294 294 294 294 294 294 294 294
Wind_Speed
29 29 29 31 32 32 30 28 26 25 24 23 23 23 22 21 21 20 19 18 19 19 18 17 15 14 13 14 14 14 13 11 9 8 8 8 8 8 9 9 10 10 12 13 14 15 16 16 17 19 19 16 12 10 9 10 11 11 10 10 10 12 14 15 16 17 17 16 16 16 16 19 20 18 16 16 15 16 15 15 16 17 17 16 17
18 20 24 29 33 33 32 30 30 29 27 26 25 24 24 24 23 22 21 20 21 21 20 20 18 16 16 16 16 16 14 13 12 10 10 10 9 9 9 9 10 11 12 13 14 16 17 17 17 19 20 18 15 11 8 9 9 8 10 11 11 13 14 15 17 18 19 18 17 18 18 19 19 17 17 18 19 19 19 18 17 17 17 17 16
13 14 17 21 26 29 30 30 31 31 31 31 29 27 26 26 25 25 24 23 22 22 23 22 21 19 18 18 18 17 16 15 14 13 13 12 11 11 11 11 11 12 13 14 15 16 17 18 18 18 18 17 16 13 10 10 9 8 10 12 13 15 16 18 19 20 21 21 20 19 17 17 19 19 18 19 21 21 22 21 20 18 18 18 17
12 14 15 17 19 22 25 26 27 30 32 33 33 32 31 28 26 26 26 26 24 24 25 25 23 22 22 21 20 19 18 17 16 16 15 14 13 13 13 13 14 14 14 15 16 17 18 18 17 17 17 16 16 14 11 11 11 11 11 12 13 14 16 18 19 19 20 21 22 22 21 21 22 21 21 21 20 19 20 20 19 18 18 18 17
3 7 10 13 15 18 20 22 23 26 29 32 32 34 34 32 29 27 27 28 27 26 27 27 26 26 25 24 23 21 20 19 18 18 17 16 16 16 16 16 16 16 16 17 17 18 18 18 17 16 16 16 15 13 12 13 14 13 13 13 13 13 15 16 17 18 19 21 22 23 24 25 24 24 23 23 21 19 18 17 17 17 17 18 17
1 1 1 3 6 10 13 16 19 21 24 30 33 35 35 35 33 31 29 29 30 29 30 30 29 29 27 26 25 23 22 21 21 21 19 18 18 17 18 18 18 17 17 17 18 18 18 17 16 16 15 15 15 15 14 15 15 15 15 15 14 15 17 18 20 20 21 21 22 21 22 22 23 24 24 22 22 22 20 19 18 17 17 18 18
7 6 4 4 5 7 7 8 13 15 17 22 28 32 32 32 32 33 31 31 32 32 33 33 32 30 29 28 27 25 24 23 23 22 21 20 19 19 20 20 20 20 19 19 19 19 18 17 16 15 15 15 15 15 15 16 16 16 16 16 15 16 17 19 20 21 22 23 23 21 21 20 20 21 21 20 21 23 22 20 17 15 14 15 15
5 6 6 6 7 9 8 7 9 11 12 14 17 21 23 23 24 26 28 30 31 31 32 33 32 31 31 31 30 28 27 26 24 23 22 21 20 21 21 20 20 20 20 20 20 19 18 17 16 16 15 16 16 16 17 17 17 17 16 16 16 17 17 18 19 20 22 23 23 22 21 20 20 20 19 17 17 18 16 15 16 16 15 16 16
4 5 6 6 7 8 9 8 9 10 11 12 13 14 16 17 18 19 22 25 27 29 33 36 34 33 34 33 32 30 29 27 26 24 23 22 21 21 21 20 20 20 20 19 19 18 18 17 17 17 17 17 18 18 18 18 19 19 19 18 17 18 18 19 19 20 21 21 22 21 21 21 20 20 19 16 15 15 15 16 20 22 22 21 20
7 7 7 8 9 9 10 11 11 12 12 13 14 13 13 13 15 16 17 19 20 23 30 34 34 35 37 35 34 32 30 29 28 26 23 22 21 21 21 20 19 19 18 17 17 17 17 17 19 20 20 19 19 20 19 19 20 20 20 20 20 20 20 21 21 21 21 22 22 22 21 21 20 19 20 19 19 19 19 19 20 20 20 20 20
10 10 10 11 11 11 12 12 13 14 15 15 16 16 14 12 13 14 14 16 18 20 24 28 31 34 36 36 34 33 32 31 29 26 23 21 21 21 20 20 19 18 17 16 15 15 16 17 19 22 23 21 21 22 22 23 23 23 23 23 23 23 24 24 25 24 23 23 23 23 23 23 21 20 20 21 21 20 19 19 18 18 18 18 18
13 13 13 14 14 14 14 14 13 14 15 16 17 18 17 14 12 11 11 14 18 21 23 24 27 31 34 36 36 34 31 29 27 25 23 22 21 20 19 19 18 17 16 16 15 14 16 19 20 22 23 23 22 23 24 25 26 27 28 27 27 26 26 26 27 27 27 27 26 25 24 23 22 21 19 19 19 19 19 19 18 18 18 19 18
17 17 17 16 16 17 17 16 15 15 16 17 18 17 18 17 14 11 12 13 16 19 19 21 26 31 35 39 39 34 28 27 27 25 23 22 21 19 17 18 17 16 16 17 17 17 18 19 20 20 21 23 24 24 24 24 26 28 29 30 30 29 29 29 29 29 29 29 31 31 29 27 25 23 20 19 20 20 21 21 20 20 20 20 21
16 18 19 18 18 18 17 16 16 17 17 18 20 19 18 18 16 12 13 15 17 18 19 21 26 31 35 38 38 32 28 27 27 24 21 20 19 17 15 16 16 16 17 18 19 19 20 19 20 20 20 22 23 23 24 26 28 29 29 29 28 28 30 30 28 27 28 27 29 32 30 28 29 27 23 21 22 23 24 24 22 21 22 22 22
16 17 18 19 17 17 17 17 18 19 19 19 21 21 21 20 18 13 12 15 18 17 18 21 26 30 33 36 35 32 28 27 24 21 18 17 16 15 15 17 17 17 18 19 19 19 19 20 22 22 22 23 23 25 28 29 31 32 31 31 30 29 28 25 22 23 24 24 25 26 25 23 25 26 24 23 24 25 25 25 23 22 23 25 24
17 17 18 18 18 19 19 20 20 20 20 19 20 22 22 22 20 15 11 13 16 15 15 21 27 30 33 34 34 32 27 23 19 16 15 14 14 14 15 15 16 16 16 17 18 17 18 21 22 23 24 24 25 28 31 32 33 33 33 32 31 28 26 24 23 24 26 27 27 27 27 26 26 26 25 24 26 27 26 24 22 22 24 25 25
18 18 18 19 20 22 22 23 23 22 21 19 18 20 22 21 21 18 13 13 14 15 18 23 28 32 34 34 32 27 21 17 15 14 13 13 13 13 12 11 12 13 14 16 17 16 18 21 23 24 26 27 28 30 33 34 34 34 33 31 29 27 24 23 23 24 27 29 31 32 34 35 35 35 34 33 32 31 31 29 25 22 25 27 27
17 18 19 21 23 23 24 25 25 23 22 20 19 20 21 21 21 18 14 13 13 15 20 27 32 35 35 32 27 21 16 13 12 12 12 11 12 11 10 10 11 12 14 16 16 16 18 21 25 29 30 30 30 32 34 35 34 31 29 28 27 25 23 21 21 22 23 25 27 29 31 31 33 34 36 37 37 36 38 38 30 26 30 31 29
18 18 21 24 26 26 26 26 26 25 24 22 21 21 21 21 19 15 13 14 15 16 22 31 36 36 33 28 21 16 13 12 11 11 11 11 11 11 10 11 13 14 15 16 16 17 18 21 25 28 29 30 31 34 36 36 32 28 25 25 26 25 22 21 21 21 21 21 22 23 24 24 24 25 27 28 28 30 37 40 34 30 33 34 30
20 21 23 26 29 29 29 28 27 26 25 23 22 21 21 20 18 15 14 15 16 17 24 33 37 34 28 22 17 13 11 10 10 10 10 11 11 12 13 14 15 16 16 17 18 18 19 20 21 23 26 30 32 34 35 35 35 33 29 25 25 24 22 22 22 23 24 24 24 24 25 23 22 22 22 22 22 23 28 31 30 30 32 33 30
21 22 25 26 27 28 30 30 28 26 25 23 21 20 21 19 17 15 16 17 18 20 27 34 34 30 23 18 14 12 10 9 9 9 10 12 14 15 17 18 19 19 19 20 20 20 21 21 21 22 26 30 32 34 35 36 37 36 32 28 27 28 28 27 26 26 27 27 26 25 25 24 24 23 21 21 23 24 25 26 27 28 30 31 31
22 24 26 25 26 28 30 30 29 27 24 21 19 20 20 19 18 18 20 21 22 26 31 32 29 24 19 15 13 12 11 10 10 10 11 13 15 16 18 19 20 22 23 24 24 23 24 23 23 24 28 32 33 35 36 36 35 35 33 32 31 31 30 29 26 24 24 24 24 24 22 22 23 22 21 21 23 25 26 26 26 27 27 28 29
23 25 26 27 28 30 31 31 29 27 22 18 17 18 19 20 21 21 21 24 26 28 29 27 24 20 17 14 12 11 9 8 8 9 10 12 14 15 16 18 19 21 24 25 26 26 26 25 24 26 29 32 33 34 34 32 31 31 30 29 27 26 26 26 24 23 24 24 24 25 24 23 22 22 22 22 22 22 22 23 24 25 26 26 28
23 24 26 28 28 28 28 26 25 24 20 17 16 18 21 22 21 21 23 25 27 27 26 24 21 18 15 12 10 7 5 4 6 6 7 9 11 12 14 16 18 20 22 24 25 27 28 26 26 27 30 31 32 31 30 27 25 24 24 23 23 23 23 22 22 22 24 25 25 26 26 25 26 26 25 23 21 20 20 20 21 23 25 26 27
24 24 26 27 26 24 22 21 20 19 17 17 19 22 24 22 21 22 23 24 27 27 25 22 18 15 12 10 9 6 3 1 3 4 5 7 9 10 12 14 16 18 20 22 25 26 26 26 28 30 30 30 29 27 24 22 21 21 21 21 20 20 19 20 20 21 23 24 24 25 24 24 25 25 23 21 21 20 20 20 20 22 24 25 25
26 27 28 28 25 22 19 19 18 16 17 19 20 22 22 21 21 22 23 27 29 26 22 18 15 12 11 10 9 7 5 3 0 4 6 8 10 12 13 15 17 19 22 24 26 26 26 28 30 30 28 26 23 21 20 19 19 19 18 17 17 17 17 18 19 20 21 21 21 23 24 23 21 20 19 20 21 22 23 22 21 22 24 25 26
25 26 26 26 23 19 18 19 18 17 19 20 19 19 19 20 22 25 29 31 28 24 21 18 15 13 12 10 9 7 5 4 1 3 6 9 11 13 15 18 20 22 23 24 24 26 28 29 28 24 21 20 19 19 19 18 17 17 16 16 16 16 17 18 19 21 22 22 21 23 24 22 20 21 22 22 22 24 25 25 24 25 25 26 28
25 24 23 22 19 18 18 19 18 19 20 19 17 16 18 22 26 30 31 30 27 24 22 19 16 14 12 10 8 7 5 3 2 5 8 10 12 13 15 18 19 21 23 23 25 27 26 22 18 16 15 15 16 16 16 16 16 16 16 16 17 17 18 19 21 22 24 23 23 24 25 24 24 26 27 26 26 28 29 28 29 29 27 27 29
26 24 23 20 18 17 18 19 20 21 18 14 14 18 25 29 30 28 26 24 22 21 19 17 14 12 11 10 8 6 4 2 5 8 10 12 14 15 16 18 19 21 22 24 26 26 21 15 13 14 14 15 15 16 16 16 16 17 17 17 17 17 17 19 20 22 23 23 23 25 25 25 27 29 29 29 30 30 30 29 29 28 27 27 29
24 24 22 19 17 17 18 20 20 19 18 20 26 30 31 29 26 24 23 21 20 19 18 16 14 12 11 10 8 6 3 4 7 10 12 14 16 17 17 19 20 21 22 23 24 20 15 13 14 14 14 15 16 16 17 17 17 17 18 17 17 17 18 20 21 21 22 23 24 26 27 28 29 29 30 30 31 30 29 28 27 27 27 27 28
23 22 20 19 19 19 21 22 21 22 25 30 34 35 32 27 24 23 22 22 21 19 16 14 13 11 9 8 6 5 5 6 9 11 13 15 16 18 19 19 20 20 21 22 19 14 12 13 14 14 15 16 17 17 18 18 18 18 18 18 17 18 18 19 20 20 21 22 24 26 27 28 29 30 29 29 29 28 27 27 26 26 27 27 27
24 22 19 19 20 21 22 25 29 32 35 37 36 36 34 31 27 24 23 22 20 17 13 11 10 8 7 5 5 5 6 8 10 12 14 15 17 18 19 18 19 20 20 19 15 11 12 13 14 14 15 16 17 17 18 18 18 18 18 18 19 19 20 20 21 22 22 23 25 27 27 28 28 29 29 28 28 28 27 27 26 26 26 26 27
24 22 20 20 21 22 26 33 36 36 38 38 36 33 32 31 29 27 25 23 19 15 11 9 7 6 4 3 4 5 6 8 10 12 14 17 19 18 18 19 21 23 21 16 11 12 13 14 14 15 16 16 17 18 17 17 17 18 18 20 21 22 23 23 23 24 24 24 25 26 27 27 27 28 27 27 27 28 27 27 26 25 25 25 26
22 22 22 23 25 27 32 37 36 35 36 37 35 32 31 31 30 29 26 23 18 15 11 8 5 3 1 1 3 5 7 9 11 13 16 18 19 18 19 20 20 19 18 13 11 13 14 14 14 15 16 17 17 17 18 19 20 21 23 24 25 26 26 25 24 24 24 24 24 25 25 25 25 26 26 26 26 27 27 26 25 25 25 25 25
22 23 23 25 26 31 35 36 37 36 36 35 34 33 31 30 29 26 23 20 17 14 11 8 5 3 1 1 3 5 7 9 12 14 16 19 20 20 20 18 15 13 14 13 12 13 13 14 15 15 16 16 17 18 19 21 24 26 27 28 28 28 27 25 24 23 23 24 24 24 24 24 24 24 24 25 26 26 27 27 26 24 24 23 23
22 22 22 24 29 35 37 37 36 34 32 32 32 29 28 28 26 22 19 17 15 12 10 8 6 4 2 2 4 6 8 9 11 14 16 19 23 22 18 14 13 13 13 13 13 13 13 13 14 15 16 16 17 19 22 24 27 28 28 29 30 29 27 26 24 24 23 23 23 23 23 23 23 23 23 24 25 26 26 27 26 24 23 22 21
21 23 25 30 36 39 37 34 32 30 30 30 29 25 24 24 22 18 17 16 14 12 10 8 5 3 2 3 5 6 7 9 12 15 18 22 24 21 14 12 13 14 14 14 14 14 14 13 14 15 16 16 18 22 25 27 28 28 29 29 30 29 27 25 24 23 23 22 22 21 20 20 21 21 21 23 25 25 26 26 25 23 22 21 21
28 33 36 39 40 39 35 32 30 30 29 27 24 21 20 20 17 15 15 14 13 11 9 6 4 3 2 3 5 7 8 10 12 15 18 20 19 15 12 11 13 14 14 14 15 15 14 14 14 15 16 19 22 26 28 28 28 29 29 30 30 29 27 25 23 22 21 21 20 19 18 18 18 18 19 21 23 24 25 25 24 22 21 21 21
39 41 42 40 37 33 31 31 31 28 25 22 21 20 19 17 15 14 13 12 11 10 9 6 6 5 4 3 4 5 5 6 8 11 14 15 15 13 11 11 13 14 14 14 15 15 15 15 15 16 19 23 26 28 29 29 29 29 30 31 31 30 27 26 24 22 20 19 18 18 17 16 16 16 17 19 21 22 24 23 21 20 20 20 20
40 39 38 35 32 30 30 30 29 25 22 20 20 19 17 15 13 12 12 11 11 10 8 8 7 6 5 4 3 3 3 3 7 10 13 15 15 13 11 10 12 13 14 14 15 16 15 15 16 18 22 25 27 28 29 29 29 30 30 31 31 30 28 27 25 23 21 19 18 17 16 15 14 14 15 17 19 20 21 20 19 18 17 17 16
37 35 33 31 30 29 28 26 25 23 20 18 17 15 14 12 10 10 11 11 10 9 9 8 6 5 4 4 6 6 4 4 8 11 14 15 14 12 10 11 12 12 13 14 15 16 16 15 17 20 24 27 28 28 28 29 28 29 30 31 31 31 29 27 26 24 22 20 17 15 14 12 12 13 14 15 16 16 16 16 15 15 15 15 15
29 28 28 28 28 28 27 25 24 23 20 17 15 13 12 11 10 10 11 10 10 9 8 6 5 4 4 5 7 6 5 6 10 12 13 13 13 12 12 12 11 13 14 14 14 16 16 16 19 23 26 28 28 28 28 28 28 29 30 31 32 31 30 28 26 24 22 19 16 13 11 10 8 8 9 9 9 10 11 12 11 11 12 14 16
22 23 25 26 27 27 27 26 24 22 19 17 14 13 13 12 11 10 11 10 9 8 6 4 3 4 5 6 6 6 6 8 10 11 12 12 13 14 15 14 14 16 17 14 13 16 16 16 19 24 26 27 28 28 28 28 29 29 30 31 32 32 31 29 26 24 22 18 13 11 9 7 5 4 3 4 5 6 7 8 9 10 11 14 15
19 21 24 26 25 24 23 23 21 18 16 13 12 12 12 12 10 10 9 8 7 5 3 2 2 4 5 6 6 6 7 8 9 10 11 12 12 15 17 16 17 20 19 14 13 16 16 16 20 25 27 27 29 29 29 29 29 29 30 31 32 32 31 29 26 24 21 16 12 10 9 7 5 3 1 3 6 7 8 9 9 10 11 12 11
18 22 25 25 23 22 22 20 18 15 12 11 11 11 11 10 9 8 8 6 4 2 1 1 3 4 5 6 6 7 8 8 8 9 11 11 11 14 17 18 18 20 20 17 16 16 16 17 20 25 27 27 28 29 30 29 29 29 30 30 31 32 31 29 26 23 20 16 14 12 10 8 6 3 1 2 5 6 6 6 7 8 9 8 8
21 24 24 23 23 23 22 19 15 13 11 11 11 10 10 8 7 6 5 4 2 1 1 2 3 4 5 5 6 7 8 8 7 8 9 10 11 13 16 17 17 18 20 20 18 16 16 18 20 24 26 27 27 28 30 30 29 29 29 29 30 31 30 27 25 22 19 17 14 13 11 9 6 4 3 2 3 4 4 4 5 5 5 6 7
22 24 23 23 23 23 20 16 13 11 10 10 9 9 8 7 6 4 3 2 1 1 3 3 4 4 5 5 6 6 6 6 6 7 8 9 10 12 15 17 16 16 19 20 19 17 16 18 21 23 26 27 27 27 29 30 29 29 29 29 30 30 29 27 24 22 19 17 15 13 11 9 7 6 5 4 4 4 4 5 4 5 6 7 8
20 21 21 20 19 18 15 13 11 10 9 9 8 7 6 5 4 3 2 1 2 3 4 4 4 5 5 5 5 5 5 5 5 5 7 8 9 12 15 16 16 16 17 19 19 18 17 18 20 23 25 27 27 27 27 28 28 28 29 29 29 29 28 27 24 22 20 17 15 14 12 10 9 8 7 5 5 5 5 6 6 7 8 10 12
16 16 15 15 14 13 12 11 10 9 8 7 6 5 4 4 3 2 2 2 2 3 3 4 5 5 5 4 3 3 3 3 3 4 5 6 8 11 14 16 15 15 16 18 18 18 17 18 19 21 23 25 26 26 26 27 28 28 28 28 28 28 28 27 25 23 21 18 16 14 13 11 10 9 8 6 5 5 6 7 8 9 10 12 16
13 12 12 11 10 9 8 7 7 6 5 5 5 4 3 2 1 1 1 2 2 2 3 4 5 5 5 3 2 2 2 2 1 2 3 5 7 11 14 15 14 14 15 16 17 18 18 17 16 18 21 23 25 25 24 25 27 28 27 25 25 26 27 27 25 24 22 20 18 16 14 12 11 10 8 7 6 6 7 9 10 12 14 16 19
9 9 9 8 8 7 6 5 5 5 4 4 3 2 1 1 1 1 1 2 2 3 3 4 5 5 5 3 1 1 1 1 1 1 2 4 6 10 13 14 14 13 14 15 16 17 18 17 16 16 19 21 23 24 24 24 25 26 26 24 23 24 25 26 26 24 23 20 19 17 15 13 11 10 9 7 7 7 9 10 12 13 16 18 21
Wind_Direction
240 243 239 234 234 236 233 229 230 230 230 231 231 231 231 232 231 233 235 236 239 241 243 244 244 242 240 240 242 244 246 249 253 260 270 278 287 296 302 308 315 321 326 329 332 336 339 339 337 334 335 335 331 325 318 312 317 318 308 300 291 286 285 281 280 283 285 284 284 285 284 282 285 286 285 282 275 271 272 273 273 273 274 274 272
243 247 247 245 242 242 241 239 238 238 238 238 239 238 238 238 237 237 237 237 240 241 242 243 243 242 241 239 240 244 246 249 252 258 267 276 287 294 297 297 300 305 313 318 322 326 329 331 330 328 328 328 329 326 307 297 303 297 290 291 288 286 287 286 284 285 288 289 288 287 287 286 285 283 280 277 274 273 271 270 272 273 273 272 268
245 247 250 251 248 247 248 247 246 247 246 245 245 244 245 244 241 240 239 239 240 241 240 241 242 241 240 239 239 243 247 250 254 258 265 275 287 296 298 298 297 299 304 309 313 317 320 323 324 324 324 324 324 322 311 301 299 289 283 285 287 289 290 292 291 289 291 293 295 295 295 291 289 290 288 283 281 279 277 275 274 272 271 269 267
249 252 252 252 252 250 249 249 250 252 252 252 251 249 248 247 245 244 242 239 238 241 242 241 241 239 237 237 239 243 248 252 256 260 267 277 287 295 300 300 299 300 301 303 307 310 313 317 319 319 321 320 318 318 310 299 296 293 289 289 291 291 291 293 293 291 291 293 295 296 295 294 294 296 296 295 293 289 284 281 277 274 272 268 267
217 239 251 257 257 252 249 249 250 252 254 256 257 256 253 250 249 248 246 243 240 240 242 241 237 236 236 237 239 243 247 252 256 260 267 276 283 291 296 298 298 298 299 300 302 305 309 312 314 315 316 316 315 312 304 297 296 294 290 287 287 285 284 285 285 285 284 285 288 292 294 296 296 296 297 298 297 293 288 283 277 272 269 267 265
103 170 265 283 273 260 250 247 249 253 255 253 253 257 259 257 254 250 247 247 245 242 243 243 238 235 235 237 239 242 246 249 253 258 263 270 276 283 288 292 293 293 295 297 299 302 306 308 309 310 312 312 312 310 305 303 302 299 294 290 285 281 279 280 282 283 283 282 284 287 289 291 292 294 296 296 294 294 292 288 283 275 269 268 267
284 289 294 300 295 288 280 267 259 257 256 251 249 254 260 261 258 255 250 249 251 250 247 243 237 233 234 236 239 243 246 247 250 254 259 263 269 276 281 285 286 287 290 291 294 299 302 304 306 307 309 308 307 305 304 303 301 298 295 292 287 283 281 282 283 283 283 284 284 284 285 285 286 287 290 291 290 292 293 292 290 282 272 269 268
285 288 288 284 277 276 277 280 274 267 262 257 251 253 257 257 257 259 257 252 253 253 247 240 234 230 231 235 238 240 243 245 248 251 254 258 264 270 275 279 280 282 285 287 291 296 300 302 304 305 306 305 304 303 302 300 297 293 290 285 281 281 280 280 280 279 281 283 283 283 283 283 282 284 286 286 285 287 286 281 278 277 271 266 265
320 314 309 301 291 283 277 274 277 279 278 274 267 258 254 252 251 252 256 257 254 251 248 245 237 230 228 230 233 236 240 242 244 247 250 254 260 266 271 274 275 278 283 287 292 296 299 302 302 302 303 303 302 302 301 299 297 295 293 287 280 277 276 275 275 276 277 277 277 279 281 280 280 281 282 279 277 278 277 274 276 279 278 272 268
332 328 323 314 306 303 300 293 289 288 287 286 284 275 261 255 251 247 247 249 243 240 245 247 240 231 229 230 232 236 237 239 242 244 246 251 258 264 268 270 272 277 283 289 294 297 300 301 300 301 302 301 299 299 299 298 296 294 292 289 284 278 273 270 269 270 272 273 273 275 275 274 274 275 276 276 276 277 277 278 279 280 280 276 272
323 324 323 321 318 314 311 306 302 296 291 288 288 285 274 258 251 249 240 231 230 238 249 253 246 237 234 234 235 235 236 240 242 242 244 250 256 261 265 268 273 279 284 291 295 296 298 299 299 301 303 304 304 304 305 304 301 297 293 289 286 282 278 275 272 269 268 268 269 270 270 270 271 270 272 274 276 277 277 277 277 276 275 273 272
316 318 319 319 320 320 316 312 308 302 296 291 290 290 285 270 254 246 232 230 246 257 259 257 251 241 234 232 230 229 233 239 240 240 244 250 254 258 264 269 276 282 287 292 293 291 292 294 296 299 302 304 305 307 309 310 309 307 303 298 293 288 283 280 276 273 269 267 267 267 266 268 270 269 269 271 273 275 275 273 273 271 269 268 267
320 321 322 322 320 317 314 313 309 303 299 295 292 290 286 280 270 253 237 242 258 265 259 250 246 240 231 227 227 228 233 237 239 241 245 248 251 257 264 272 280 285 287 291 293 291 291 293 294 297 300 304 308 309 310 310 309 308 307 304 301 296 291 287 283 279 273 267 264 263 262 264 266 265 264 266 269 271 272 271 269 267 266 265 266
324 325 325 325 323 317 312 309 305 301 299 295 293 290 286 282 277 262 251 255 260 263 260 250 243 238 230 226 229 232 233 235 238 240 243 247 253 261 271 278 283 285 286 290 293 293 292 292 292 296 300 304 307 307 306 307 307 306 305 303 299 296 294 292 288 284 280 275 270 267 264 262 263 264 262 263 267 270 270 269 267 266 266 264 263
324 326 325 323 320 315 312 308 303 300 297 293 291 290 288 285 279 264 254 259 260 258 256 249 242 234 227 224 227 230 231 232 234 237 242 250 259 269 277 282 286 288 289 292 294 293 294 295 297 300 303 305 305 305 305 307 306 305 304 301 298 294 291 287 279 274 276 275 274 272 269 264 262 263 262 260 261 262 263 265 266 266 267 266 263
322 321 319 317 313 310 309 308 305 300 296 291 287 286 286 286 281 268 250 251 251 242 240 244 240 230 222 221 223 225 225 225 228 235 246 256 267 276 281 286 289 289 289 291 293 292 292 295 297 299 302 304 303 304 305 305 304 304 303 301 298 294 288 281 273 267 265 263 259 256 254 253 253 254 252 249 249 248 251 258 263 265 267 267 265
318 316 312 309 307 306 306 306 304 301 295 288 281 279 281 281 278 269 252 242 241 236 235 238 232 224 219 217 218 217 215 217 228 243 254 262 270 277 282 284 282 280 282 286 288 286 286 290 294 297 301 303 302 302 303 303 302 303 302 298 295 290 284 281 277 272 269 268 265 260 256 253 252 250 248 246 244 243 246 254 259 259 262 263 264
310 308 304 302 302 303 303 303 302 299 294 286 278 275 276 275 271 263 249 237 234 233 234 230 223 219 217 214 211 209 210 217 233 247 255 262 269 275 279 279 277 278 281 284 286 286 286 289 295 301 303 303 302 302 302 301 301 301 299 296 293 287 283 282 280 277 275 274 274 272 270 267 264 261 257 253 249 243 242 248 254 256 258 259 260
303 300 298 299 299 299 300 301 299 295 290 284 277 272 271 270 262 249 238 235 231 229 230 227 222 218 215 211 207 207 212 223 234 243 252 261 269 276 277 276 278 281 283 286 287 288 287 289 296 301 303 301 300 299 299 299 300 301 299 294 289 286 284 283 281 280 278 275 273 273 274 275 275 273 268 264 260 252 245 246 249 251 254 256 256
297 295 296 298 299 298 298 299 299 295 288 280 273 266 264 263 253 237 231 231 225 226 231 228 221 214 209 204 200 196 199 220 235 241 252 262 268 272 273 275 279 284 287 289 289 289 289 290 292 296 296 295 295 295 295 296 299 301 298 290 284 283 283 281 276 271 270 271 272 270 268 269 268 266 264 262 261 258 253 250 247 245 249 252 252
292 291 294 295 295 296 296 297 298 295 285 274 266 259 257 257 246 232 228 225 221 226 229 223 213 204 195 189 187 182 181 201 224 235 249 260 267 273 277 281 284 287 288 290 291 291 290 290 291 290 288 287 287 288 290 294 297 296 292 284 281 282 281 279 275 271 269 270 270 269 268 267 265 263 262 259 255 254 254 251 248 245 246 248 248
287 288 290 289 289 291 293 293 295 292 280 265 256 254 253 250 242 233 229 229 230 230 224 212 200 190 182 177 179 184 189 204 226 243 256 268 277 284 287 288 290 292 293 293 293 292 290 291 291 288 284 283 285 287 290 293 292 290 287 284 283 283 280 278 275 273 271 270 269 269 268 266 264 262 260 259 258 255 252 250 248 247 246 246 246
283 282 282 283 284 287 288 289 291 288 273 253 247 249 247 244 238 232 231 233 230 222 209 194 180 172 171 173 178 187 199 218 245 264 274 281 285 288 290 292 293 295 296 296 296 295 294 292 289 285 284 287 288 289 290 290 287 285 284 283 281 280 278 275 272 270 269 269 267 266 264 263 263 262 260 259 259 257 254 252 249 248 248 247 247
276 275 277 280 281 282 282 283 284 279 264 248 242 239 237 236 233 231 232 229 216 197 181 171 165 162 162 162 164 171 194 240 267 277 281 285 288 291 295 299 301 302 302 302 302 299 295 290 289 292 295 297 296 297 297 296 293 291 289 287 286 283 278 272 269 269 269 267 266 265 264 262 261 261 259 258 258 257 255 253 251 248 249 250 249
269 269 273 275 274 272 271 273 273 266 250 238 236 234 231 229 228 229 225 208 186 170 162 158 157 155 152 146 141 141 143 239 296 302 302 300 302 304 305 307 309 311 311 312 312 308 303 302 305 308 308 307 306 306 305 303 301 298 297 296 293 285 277 271 269 268 266 265 264 264 263 262 261 261 259 258 259 258 256 254 253 250 248 248 249
266 266 267 267 265 261 261 266 263 247 232 229 231 232 231 228 225 216 196 176 165 160 157 155 151 150 147 138 133 128 117 114 65 329 334 332 325 323 323 323 325 326 327 325 322 318 314 313 314 314 312 311 309 306 303 302 303 302 302 300 293 284 278 275 271 268 266 265 264 264 264 264 263 262 262 262 261 261 260 257 256 254 251 249 250
262 262 262 261 256 251 254 256 245 228 225 227 226 227 227 221 208 189 171 160 156 155 153 151 149 148 142 131 124 118 110 111 92 351 348 345 340 337 335 333 332 333 330 325 320 316 313 313 314 313 312 311 309 307 306 307 305 302 300 296 288 283 278 273 270 269 268 266 265 265 267 267 267 266 266 265 263 263 264 260 257 257 256 252 251
257 255 254 252 246 243 248 243 227 221 227 226 220 216 205 187 173 166 161 157 155 153 150 147 145 140 131 123 119 117 116 109 33 7 1 355 351 345 339 335 333 331 326 321 320 319 317 314 312 311 309 307 307 306 305 302 299 295 293 291 287 283 278 274 272 271 270 268 268 268 268 268 268 269 269 267 264 265 266 264 263 262 260 256 252
251 249 247 242 236 236 237 227 218 218 217 198 176 171 168 161 157 154 153 155 156 151 145 142 141 136 131 127 124 123 123 77 14 10 5 360 356 350 343 340 337 333 330 328 326 324 319 312 308 308 308 307 307 307 305 303 301 298 294 292 289 284 281 278 276 274 272 270 268 267 266 266 267 269 270 269 269 270 268 266 264 262 259 255 253
245 244 240 233 226 224 222 215 208 201 185 165 157 157 155 153 151 146 142 144 146 144 144 145 143 138 129 119 114 112 93 33 14 9 5 1 356 351 347 345 343 340 336 332 328 323 317 312 310 310 310 309 309 309 308 306 304 301 298 295 290 285 282 281 278 276 274 271 268 267 267 268 270 273 274 273 274 275 272 267 262 258 254 253 252
238 235 231 223 217 215 214 205 186 169 162 160 158 153 147 144 143 140 138 140 142 142 144 141 134 127 118 104 93 76 43 21 13 9 5 0 356 352 350 349 348 345 339 336 334 328 317 313 312 310 311 312 310 309 309 308 306 304 301 297 292 289 285 282 281 280 276 273 272 271 271 273 275 278 279 279 278 277 275 272 266 259 254 252 250
230 227 223 216 213 212 204 185 167 159 157 156 152 146 144 145 145 144 145 149 150 148 143 134 122 115 107 89 64 40 23 12 9 8 3 359 357 354 351 351 354 354 351 348 342 329 317 315 313 311 311 312 311 310 310 308 306 305 303 299 298 296 292 291 292 289 283 279 278 278 277 277 278 280 280 279 279 278 276 272 267 261 256 252 249
227 223 216 210 210 205 186 169 162 159 156 152 147 144 145 147 149 152 157 163 166 163 154 141 124 109 97 69 33 17 9 6 6 5 0 359 358 353 349 354 0 1 359 355 339 325 323 319 314 313 313 312 312 312 311 310 309 309 308 306 305 304 303 302 301 296 290 287 285 283 282 281 280 281 280 278 277 276 274 270 265 261 257 252 248
219 213 211 209 202 186 171 164 162 158 154 150 149 148 149 152 156 159 162 167 171 171 165 158 148 133 107 30 8 3 3 5 4 1 360 359 355 351 356 6 7 1 355 347 332 326 326 321 317 317 316 314 313 313 312 314 318 319 319 317 315 314 312 310 305 300 295 292 289 285 283 282 281 281 279 276 274 273 272 269 264 259 255 250 246
209 207 211 207 188 168 161 163 162 156 152 151 150 149 153 158 161 161 161 164 169 171 169 170 175 183 235 319 344 354 1 4 1 359 360 357 353 356 5 11 7 355 348 343 333 326 324 321 320 320 317 316 318 318 317 322 327 328 327 325 324 322 319 315 311 307 301 295 291 288 285 282 280 279 277 274 271 270 269 267 261 256 253 248 242
203 201 200 189 172 162 160 159 155 151 150 149 147 148 155 161 163 164 166 168 173 176 177 183 193 209 250 311 342 352 357 360 360 0 359 357 358 5 9 4 355 350 346 340 333 328 326 324 322 322 320 319 321 323 326 330 333 333 331 330 329 327 323 319 315 312 306 299 294 291 288 283 280 278 276 273 270 268 267 264 259 255 251 244 237
182 176 170 163 158 157 154 150 145 144 144 144 145 150 158 162 163 164 168 174 180 184 187 195 207 222 274 327 342 341 343 352 359 0 359 360 3 7 5 354 348 347 343 339 338 334 330 327 324 324 324 323 326 331 335 337 338 337 336 336 334 331 327 323 318 314 310 306 303 298 292 288 284 279 274 271 268 266 264 260 256 253 248 241 233
148 146 145 146 147 148 146 143 142 140 139 142 149 154 157 159 161 163 168 178 183 183 187 198 205 204 246 310 326 334 347 359 1 360 1 3 4 3 358 351 348 345 342 342 341 337 334 332 328 327 330 333 337 341 342 342 342 341 340 339 337 335 332 329 325 320 316 313 310 306 299 293 288 281 274 270 266 263 262 259 254 249 246 241 234
132 133 135 139 141 142 142 142 143 143 144 148 152 153 153 156 157 160 169 178 177 173 175 178 176 184 209 248 294 330 352 358 353 353 358 1 360 357 355 351 346 344 344 343 341 340 338 334 332 334 339 342 345 346 346 344 342 342 343 341 339 338 337 335 331 327 324 321 319 315 308 300 293 286 278 270 265 262 260 257 250 243 240 240 238
131 131 132 135 137 138 140 143 146 149 150 149 149 150 152 154 156 160 167 170 169 170 170 172 182 207 240 265 295 324 333 328 334 343 351 355 356 356 354 348 343 343 344 343 342 343 340 336 337 342 346 348 350 349 347 344 342 342 343 343 341 341 341 339 336 334 331 329 326 321 314 308 302 293 281 269 263 259 257 251 243 238 236 234 234
129 130 131 134 136 139 142 146 149 150 148 145 146 151 154 154 156 161 163 165 168 171 171 181 205 243 284 308 323 330 331 332 338 339 341 346 352 354 351 347 344 342 342 342 343 342 339 338 343 349 352 353 352 350 347 346 345 344 345 345 345 345 344 342 340 338 336 334 330 323 317 313 306 295 283 273 262 255 248 241 235 234 233 226 225
132 135 138 140 141 144 147 150 151 151 148 147 150 155 158 158 160 163 165 169 174 175 180 201 238 289 321 322 323 327 330 338 341 334 330 337 347 351 350 348 345 344 345 343 341 340 338 340 349 354 355 355 354 351 349 349 348 347 347 348 348 347 346 345 344 343 342 339 333 327 322 318 310 297 284 272 257 242 235 230 226 225 226 225 228
143 145 147 147 147 149 152 153 153 153 154 155 158 162 165 167 170 175 180 184 185 187 199 225 271 326 337 332 332 334 333 336 337 328 321 329 345 353 353 349 347 350 351 346 339 340 340 343 353 359 359 358 357 356 355 353 351 350 350 351 350 349 349 348 347 348 347 342 339 338 337 336 333 320 285 246 219 210 212 213 208 208 217 226 231
149 150 151 150 151 152 154 154 154 156 160 164 167 169 172 175 180 187 193 197 200 205 219 253 325 347 348 349 349 343 334 331 329 323 320 329 345 355 354 351 351 355 356 350 343 344 344 346 355 2 3 2 1 0 359 358 355 353 353 354 353 352 351 349 349 351 350 348 350 355 358 1 6 1 267 207 200 203 207 207 205 210 221 229 230
150 152 153 154 155 157 158 158 159 163 170 178 179 176 178 184 190 195 199 201 202 205 210 18 11 3 1 357 351 343 337 333 330 324 322 331 345 354 355 353 353 355 357 356 352 349 348 350 357 1 1 2 4 4 3 1 359 356 356 356 355 354 352 351 352 354 355 356 359 3 7 13 24 38 103 186 199 206 210 212 217 224 229 227 219
151 155 157 160 163 165 164 165 170 176 183 185 181 179 184 192 197 198 196 188 175 144 55 35 18 7 2 354 346 340 338 337 332 323 320 330 344 352 354 354 354 355 358 1 359 354 350 354 359 0 359 1 5 7 6 4 2 1 360 359 358 357 355 354 356 359 2 4 6 7 10 17 31 54 80 120 172 190 190 193 206 217 215 207 200
154 157 160 163 166 169 171 175 181 185 184 180 178 182 190 192 189 185 177 159 106 36 34 29 16 6 1 352 344 339 337 337 334 323 322 333 346 351 352 355 356 356 359 3 5 1 356 357 0 1 359 0 5 8 9 7 5 4 4 4 3 0 359 359 3 7 9 10 12 12 15 22 35 49 66 88 116 138 151 162 172 174 175 178 180
150 154 157 160 165 170 175 179 181 180 176 176 180 186 187 180 170 160 142 73 28 25 27 20 11 6 359 348 339 337 337 339 336 327 328 340 351 353 354 356 357 357 0 5 8 8 5 2 1 1 1 3 6 9 10 9 6 6 8 8 7 5 4 6 11 14 15 17 20 20 21 28 38 46 55 72 94 113 129 142 151 160 165 168 171
141 147 152 157 163 169 172 174 174 174 176 181 183 178 170 164 153 133 97 42 25 27 22 8 2 1 355 344 334 333 340 346 340 328 332 347 357 358 358 358 358 359 2 6 10 13 13 8 2 360 2 5 8 10 10 9 8 10 12 11 11 11 11 12 16 19 21 24 26 27 27 33 40 45 51 63 84 110 130 141 148 158 164 164 166
131 136 141 148 156 160 162 165 169 173 175 173 165 157 153 150 131 82 47 26 20 18 11 2 356 352 350 344 326 319 340 4 347 326 339 360 6 3 2 1 1 2 5 8 12 16 18 14 5 0 4 8 10 11 11 11 12 14 15 14 15 17 18 18 20 23 25 28 30 30 31 37 44 49 56 66 84 109 130 141 148 156 161 163 163
126 129 134 139 143 147 151 155 157 162 163 159 152 149 142 116 77 48 32 26 10 360 358 354 348 348 354 1 345 326 354 27 15 346 3 16 13 8 6 5 4 5 8 11 15 18 21 21 12 3 5 10 11 12 14 15 16 17 17 17 20 22 23 24 25 26 27 31 35 35 35 39 47 57 68 77 89 109 126 137 144 150 156 159 160